Weather History for KEBG - April, 2013

Change the Weather History Date:

Thursday, April 11, 2013

  Actual Average (KMFE) Record (KMFE)
Temperature  
Mean Temperature 67 °F 76 °F  
Max Temperature 79 °F 87 °F 101 °F (1963)
Min Temperature 55 °F 65 °F 44 °F (1973)
Degree Days  
Heating Degree Days 0 0  
Month to date heating degree days 3  
Since 1 July heating degree days 574  
Cooling Degree Days 2 11  
Month to date cooling degree days 115  
Year to date cooling degree days 492  
Growing Degree Days 17 (Base 50)    
Moisture  
Dew Point 45 °F    
Average Humidity 51    
Maximum Humidity 80    
Minimum Humidity 21    
Precipitation  
Precipitation 0.01 in 0.04 in 0.72 in (1978)
Month to date precipitation 0.35  
Year to date precipitation 3.54  
Sea Level Pressure  
Sea Level Pressure 29.87 in    
Wind  
Wind Speed 12 mph (NE)    
Max Wind Speed 17 mph    
Max Gust Speed 21 mph    
Visibility 7 miles    
Events Rain    
T = Trace of Precipitation, MM = Missing Value Source: NWS Daily Summary

Daily Weather History Graph

Daily Weather History Graph

Search for Another Location

Airport or City:

Trip Planner

Search our weather history database for the weather conditions in past years. The results will help you decide how hot, cold, wet, or windy it might be!

Date:

Astronomy

Apr. 11, 2013 Rise Set
Actual Time 7:12 AM CDT 7:54 PM CDT
Civil Twilight 6:49 AM CDT 8:18 PM CDT
Nautical Twilight 6:21 AM CDT 8:45 PM CDT
Astronomical Twilight 5:53 AM CDT 9:14 PM CDT
Moon 7:53 AM CDT (4/11) 9:19 PM CDT (4/11)
Length of Visible Light 13h 28m
Length of Day
12h 41m
New Moon, 2% of the Moon is Illuminated
Apr 11
New Moon
Apr 18
First Quarter
Apr 25
Full
May 2
Last Quarter
May 9
New

Hourly Weather History & Observations

Time (CDT) Temp. Dew Point Humidity Pressure Visibility Wind Dir Wind Speed Gust Speed Precip Events Conditions
12:15 AM 64.8 °F 50.5 °F 60% 29.82 in 7.0 mi North 17.3 mph - N/A   Overcast
12:35 AM 64.4 °F 50.4 °F 60% 29.83 in 7.0 mi North 16.1 mph - N/A   Overcast
12:55 AM 63.9 °F 50.9 °F 63% 29.84 in 7.0 mi North 12.7 mph 17.3 mph N/A   Overcast
1:15 AM 63.7 °F 51.1 °F 64% 29.84 in 10.0 mi North 13.8 mph - N/A   Overcast
1:35 AM 63.1 °F 50.7 °F 64% 29.85 in 10.0 mi NNW 16.1 mph 20.7 mph N/A   Overcast
1:55 AM 62.6 °F 50.5 °F 65% 29.85 in 7.0 mi NNW 12.7 mph - N/A   Overcast
2:15 AM 59.4 °F 53.2 °F 80% 29.85 in 10.0 mi North 13.8 mph - 0.01 in Rain Light Rain
2:35 AM 59.9 °F 53.6 °F 80% 29.85 in 10.0 mi North 12.7 mph - 0.01 in   Overcast
2:55 AM 59.5 °F 52.9 °F 79% 29.85 in 7.0 mi North 10.4 mph - 0.01 in   Overcast
3:15 AM 59.7 °F 52.5 °F 77% 29.84 in 7.0 mi North 12.7 mph - N/A   Overcast
3:35 AM 59.0 °F 52.7 °F 80% 29.85 in 10.0 mi North 12.7 mph 18.4 mph N/A   Light Drizzle
3:55 AM 59.0 °F 51.3 °F 75% 29.85 in 7.0 mi North 12.7 mph - N/A   Overcast
4:15 AM 59.0 °F 51.1 °F 75% 29.85 in 7.0 mi North 11.5 mph 16.1 mph N/A   Overcast
4:35 AM 59.0 °F 51.1 °F 75% 29.85 in 7.0 mi NNE 10.4 mph - N/A   Overcast
4:55 AM 59.2 °F 51.3 °F 75% 29.86 in 7.0 mi North 12.7 mph - N/A Rain Rain
5:15 AM 59.0 °F 51.3 °F 75% 29.87 in 10.0 mi North 10.4 mph - N/A   Overcast
5:35 AM 59.0 °F 51.3 °F 75% 29.86 in 10.0 mi NNE 9.2 mph - N/A   Light Drizzle
5:55 AM 59.0 °F 51.6 °F 76% 29.87 in 7.0 mi NNE 9.2 mph - N/A   Overcast
6:15 AM 58.5 °F 50.9 °F 76% 29.88 in 7.0 mi NE 9.2 mph - N/A   Overcast
6:35 AM 57.4 °F 50.0 °F 76% 29.89 in 7.0 mi NNE 10.4 mph - N/A   Mostly Cloudy
6:55 AM 56.8 °F 48.2 °F 73% 29.90 in 7.0 mi NNE 13.8 mph 20.7 mph N/A   Mostly Cloudy
7:15 AM 56.5 °F 47.3 °F 71% 29.91 in 7.0 mi NNE 11.5 mph - N/A   Mostly Cloudy
7:35 AM 55.9 °F 47.7 °F 74% 29.92 in 7.0 mi NE 6.9 mph - N/A   Scattered Clouds
7:55 AM 55.8 °F 47.8 °F 75% 29.92 in 7.0 mi NNE 8.1 mph - N/A   Clear
8:35 AM 56.5 °F 47.1 °F 71% 29.94 in 7.0 mi NNE 5.8 mph - N/A   Clear
8:55 AM 57.6 °F 46.4 °F 66% 29.95 in 5.0 mi North 8.1 mph - N/A   Haze
9:15 AM 58.6 °F 44.4 °F 59% 29.95 in 7.0 mi North 9.2 mph - N/A   Clear
9:35 AM 59.7 °F 44.8 °F 58% 29.95 in 5.0 mi NNW 9.2 mph - N/A   Haze
10:15 AM 62.1 °F 44.6 °F 53% 29.97 in 7.0 mi NNW 11.5 mph 17.3 mph N/A   Clear
10:35 AM 62.8 °F 44.1 °F 50% 29.97 in 7.0 mi North 12.7 mph 18.4 mph N/A   Clear
10:55 AM 63.3 °F 43.0 °F 47% 29.97 in 7.0 mi North 15.0 mph 19.6 mph N/A   Clear
11:15 AM 63.3 °F 41.9 °F 46% 29.97 in 7.0 mi North 13.8 mph 20.7 mph N/A   Clear
11:35 AM 65.1 °F 40.5 °F 40% 29.97 in 5.0 mi North 11.5 mph 20.7 mph N/A   Haze
11:55 AM 65.1 °F 40.3 °F 40% 29.96 in 7.0 mi North 15.0 mph 19.6 mph N/A   Clear
12:15 PM 67.3 °F 41.7 °F 39% 29.95 in 5.0 mi North 6.9 mph 10.4 mph N/A   Haze
12:35 PM 68.0 °F 39.0 °F 35% 29.94 in 7.0 mi North 13.8 mph 18.4 mph N/A   Clear
12:55 PM 68.9 °F 38.1 °F 32% 29.94 in 7.0 mi North 8.1 mph - N/A   Clear
1:15 PM 70.7 °F 37.9 °F 30% 29.91 in 7.0 mi NNE 12.7 mph 17.3 mph N/A   Clear
1:35 PM 71.1 °F 37.8 °F 30% 29.90 in 7.0 mi North 12.7 mph 16.1 mph N/A   Clear
1:55 PM 72.5 °F 37.0 °F 27% 29.89 in 7.0 mi North 9.2 mph - N/A   Clear
2:15 PM 73.4 °F 37.0 °F 27% 29.87 in 7.0 mi NNE 6.9 mph 16.1 mph N/A   Clear
2:35 PM 73.9 °F 36.7 °F 26% 29.86 in 7.0 mi NE 10.4 mph - N/A   Clear
2:55 PM 75.0 °F 36.0 °F 24% 29.85 in 4.0 mi ENE 8.1 mph - N/A   Haze
3:15 PM 75.7 °F 36.0 °F 24% 29.85 in 5.0 mi NE 8.1 mph - N/A   Haze
3:35 PM 76.8 °F 35.8 °F 23% 29.83 in 5.0 mi NNE 8.1 mph - N/A   Haze
3:55 PM 77.4 °F 35.8 °F 22% 29.82 in 7.0 mi NE 5.8 mph - N/A   Clear
4:15 PM 78.1 °F 36.7 °F 22% 29.81 in 7.0 mi ENE 9.2 mph - N/A   Clear
4:35 PM 78.1 °F 36.7 °F 22% 29.80 in 7.0 mi ENE 13.8 mph - N/A   Clear
4:55 PM 78.8 °F 36.5 °F 22% 29.79 in 7.0 mi ENE 9.2 mph - N/A   Clear
5:15 PM 79.0 °F 36.5 °F 22% 29.78 in 7.0 mi ENE 3.5 mph 9.2 mph N/A   Clear
5:35 PM 79.2 °F 36.3 °F 21% 29.78 in 7.0 mi NE 8.1 mph - N/A   Clear
5:55 PM 78.8 °F 37.4 °F 23% 29.78 in 7.0 mi East 9.2 mph - N/A   Clear
6:15 PM 78.4 °F 38.1 °F 23% 29.78 in 7.0 mi East 10.4 mph 19.6 mph N/A   Clear
6:35 PM 77.2 °F 38.7 °F 25% 29.78 in 7.0 mi ESE 12.7 mph - N/A   Clear
6:55 PM 75.4 °F 38.7 °F 27% 29.79 in 7.0 mi ESE 13.8 mph - N/A   Clear
7:15 PM 73.8 °F 38.3 °F 28% 29.80 in 7.0 mi ESE 12.7 mph - N/A   Clear
7:35 PM 71.6 °F 39.7 °F 31% 29.81 in 7.0 mi ESE 11.5 mph - N/A   Clear
7:55 PM 70.0 °F 39.4 °F 33% 29.81 in 5.0 mi ESE 13.8 mph - N/A   Haze
8:15 PM 68.2 °F 41.5 °F 38% 29.82 in 10.0 mi ESE 11.5 mph 18.4 mph N/A   Clear
8:35 PM 67.1 °F 41.9 °F 40% 29.82 in 10.0 mi East 9.2 mph - N/A   Clear
8:55 PM 65.8 °F 43.3 °F 44% 29.82 in 7.0 mi ESE 9.2 mph - N/A   Clear
9:15 PM 64.8 °F 45.7 °F 50% 29.83 in 7.0 mi ESE 9.2 mph - N/A   Clear
9:35 PM 64.4 °F 47.5 °F 54% 29.84 in 7.0 mi ESE 10.4 mph - N/A   Clear
9:55 PM 63.5 °F 48.4 °F 58% 29.85 in 7.0 mi ESE 8.1 mph - N/A   Clear
10:15 PM 62.1 °F 48.2 °F 60% 29.87 in 10.0 mi SE 5.8 mph - N/A   Clear
10:35 PM 60.4 °F 48.2 °F 64% 29.88 in 7.0 mi SSE 3.5 mph - N/A   Clear
10:55 PM 60.1 °F 48.2 °F 65% 29.89 in 7.0 mi SSE 3.5 mph - N/A   Clear
11:15 PM 60.1 °F 48.6 °F 66% 29.90 in 7.0 mi SE 3.5 mph - N/A   Clear
11:35 PM 59.0 °F 48.2 °F 67% 29.90 in 7.0 mi Calm Calm - N/A   Clear
11:55 PM 58.1 °F 49.3 °F 72% 29.90 in 7.0 mi SE 3.5 mph - N/A   Clear